CW9414 Weather Reports


time (UTC)temp
C
wind
direction
speed
KPH
gust
KPH
rain 1hr
cm
rain 24hr
cm
rain mn
cm
humidity
%
barometer
mb
20260903062448 28 146 0.0 3.2 0.00 0.00 0.00 78 1009.7
20260903061448 28 146 0.0 1.6 0.00 0.00 0.00 79 1009.8
20260903060448 28 146 0.0 3.2 0.00 0.00 0.00 78 1009.8
20260903055451 28 146 0.0 3.2 0.00 0.00 0.00 78 1010.1
20260903054448 28 146 0.0 6.4 0.00 0.00 0.00 77 1010.2
20260903053448 29 146 0.0 3.2 0.00 0.00 0.00 77 1010.2
20260903052448 29 146 0.0 1.6 0.00 0.00 0.00 77 1010.7
20260903051451 29 146 0.0 0.0 0.00 0.00 0.00 77 1010.7
20260903050448 29 146 0.0 0.0 0.00 0.00 0.00 76 1010.7
20260903045448 29 146 0.0 3.2 0.00 0.00 0.00 77 1010.7
20260903044448 29 146 0.0 1.6 0.00 0.00 0.00 77 1010.6
20260903043448 29 146 0.0 1.6 0.00 0.00 0.00 76 1010.6
20260903042448 29 146 0.0 4.8 0.00 0.00 0.00 76 1010.5
20260903041447 29 146 0.0 0.0 0.00 0.00 0.00 75 1010.2
20260903040447 29 146 0.0 3.2 0.00 0.00 0.00 75 1010.2
20260903035448 29 146 0.0 6.4 0.00 0.00 0.00 75 1010.2
20260903034447 29 155 0.0 9.7 0.00 0.00 0.00 74 1010.1
20260903033448 29 156 3.2 6.4 0.00 0.00 0.00 74 1010.1
20260903032447 30 156 0.0 3.2 0.00 0.00 0.00 73 1009.8
20260903031451 30 156 0.0 1.6 0.00 0.00 0.00 72 1009.7
20260903030447 30 156 1.6 11.3 0.00 0.00 0.00 72 1009.7
20260903025448 30 169 3.2 6.4 0.00 0.00 0.00 70 1009.4
20260903024447 30 170 0.0 14.5 0.00 0.00 0.00 69 1009.2
20260903023447 30 159 4.8 9.7 0.00 0.00 0.00 68 1009.2
20260903022447 30 159 0.0 9.7 0.00 0.00 0.00 66 1009.2
20260903021448 30 169 1.6 11.3 0.00 0.00 0.00 65 1008.7
20260903020447 30 186 0.0 6.4 0.00 0.00 0.00 63 1008.7
20260903015448 30 189 0.0 16.1 0.00 0.00 0.00 62 1008.6
20260903014447 31 134 3.2 6.4 0.00 0.00 0.00 60 1008.4
20260903013451 31 150 3.2 14.5 0.00 0.00 0.00 59 1008.4
20260903012450 31 157 3.2 9.7 0.00 0.00 0.00 58 1008.3
20260903011447 31 144 1.6 17.7 0.00 0.00 0.00 57 1008.1
20260903010450 32 154 0.0 17.7 0.00 0.00 0.00 55 1008.1
20260903005448 32 170 3.2 12.9 0.00 0.00 0.00 53 1008.0
20260903004450 32 178 11.3 11.3 0.00 0.00 0.00 52 1007.7
20260903003448 32 190 6.4 12.9 0.00 0.00 0.00 50 1007.7
20260903002448 32 140 8.0 14.5 0.00 0.00 0.00 49 1007.4
20260903001448 33 209 4.8 8.0 0.00 0.00 0.00 49 1007.2
20260903000448 33 140 4.8 19.3 0.00 0.00 0.00 49 1007.2
20260902235448 33 173 6.4 14.5 0.00 0.00 0.00 48 1007.2
20260902234448 33 136 11.3 16.1 0.00 0.00 0.00 47 1007.3
20260902233447 34 82 4.8 17.7 0.00 0.00 0.00 47 1007.3
20260902232451 34 160 4.8 9.7 0.00 0.00 0.00 47 1007.2
20260902231447 35 160 0.0 19.3 0.00 0.00 0.00 48 1007.2
20260902230447 35 218 8.0 14.5 0.00 0.00 0.00 47 1007.2
20260902225447 35 126 0.0 11.3 0.00 0.00 0.00 46 1007.2
20260902224450 35 115 4.8 16.1 0.00 0.00 0.00 46 1007.2
20260902223451 36 152 1.6 11.3 0.00 0.00 0.00 45 1007.2
20260902222450 36 201 4.8 9.7 0.00 0.00 0.00 44 1007.2
20260902221448 36 148 3.2 9.7 0.00 0.00 0.00 42 1007.1
20260902220448 36 205 4.8 8.0 0.00 0.00 0.00 41 1007.2
20260902215450 37 178 1.6 9.7 0.00 0.00 0.00 41 1007.2
20260902214447 37 169 1.6 8.0 0.00 0.00 0.00 41 1007.3
20260902213447 37 165 3.2 8.0 0.00 0.00 0.00 42 1007.3
20260902212448 36 137 1.6 8.0 0.00 0.00 0.00 41 1007.7
20260902211447 36 165 3.2 12.9 0.00 0.00 0.00 40 1007.7
20260902210447 36 196 0.0 9.7 0.00 0.00 0.00 40 1007.7
20260902205447 37 141 4.8 20.9 0.00 0.00 0.00 39 1007.7
20260902204448 36 175 4.8 16.1 0.00 0.00 0.00 41 1007.9
20260902203448 36 157 4.8 14.5 0.00 0.00 0.00 40 1007.9
20260902202450 36 188 8.0 9.7 0.00 0.00 0.00 41 1008.0
20260902201447 36 200 0.0 14.5 0.00 0.00 0.00 41 1008.3
20260902200451 36 172 3.2 11.3 0.00 0.00 0.00 40 1008.3
20260902195447 36 246 6.4 14.5 0.00 0.00 0.00 42 1008.7
20260902194447 36 175 3.2 14.5 0.00 0.00 0.00 42 1008.9
20260902193447 36 144 4.8 9.7 0.00 0.00 0.00 42 1008.9
20260902192447 36 202 1.6 9.7 0.00 0.00 0.00 42 1009.1
20260902191447 36 171 3.2 9.7 0.00 0.00 0.00 43 1009.2
20260902190448 36 234 1.6 9.7 0.00 0.00 0.00 45 1009.2
20260902185447 35 123 1.6 14.5 0.00 0.00 0.00 46 1009.6
20260902184447 35 149 1.6 9.7 0.00 0.00 0.00 48 1009.8
20260902183450 35 246 3.2 9.7 0.00 0.00 0.00 50 1009.8
20260902182450 35 268 3.2 11.3 0.00 0.00 0.00 50 1009.9
20260902181447 35 238 1.6 11.3 0.00 0.00 0.00 50 1010.3
20260902180447 34 349 3.2 16.1 0.00 0.00 0.00 52 1010.3
20260902175450 33 260 3.2 14.5 0.00 0.00 0.00 53 1010.7
20260902174447 33 223 4.8 11.3 0.00 0.00 0.00 57 1010.8
20260902173451 26 202 0.0 0.0 0.00 0.00 0.00 88 1010.7
20260902172447 26 202 0.0 0.0 0.00 0.00 0.00 88 1011.0
20260902171447 26 202 0.0 0.0 0.00 0.00 0.00 88 1011.2
20260902170447 26 202 0.0 0.0 0.00 0.00 0.00 88 1011.2
20260902165450 26 202 0.0 0.0 0.00 0.00 0.00 88 1011.3
20260902164447 26 202 0.0 0.0 0.00 0.00 0.00 88 1011.5
20260902163447 26 202 0.0 0.0 0.00 0.00 0.00 88 1011.5
20260902162447 26 202 0.0 0.0 0.00 0.00 0.00 88 1011.6
20260902161447 26 202 0.0 0.0 0.00 0.00 0.00 88 1011.6
20260902160447 26 202 0.0 0.0 0.00 0.00 0.00 88 1011.6
20260902155447 26 202 0.0 0.0 0.00 0.00 0.00 88 1011.5
20260902154447 26 202 0.0 0.0 0.00 0.00 0.00 88 1011.5
20260902153447 26 202 0.0 0.0 0.00 0.00 0.00 88 1011.5
20260902152447 26 202 0.0 0.0 0.00 0.00 0.00 88 1011.3
20260902151450 26 202 0.0 0.0 0.00 0.00 0.00 88 1011.4
20260902150447 26 202 0.0 0.0 0.00 0.00 0.00 88 1011.4
20260902145447 26 202 0.0 0.0 0.00 0.00 0.00 88 1011.4
20260902144447 26 202 0.0 0.0 0.00 0.00 0.00 88 1011.3
20260902143447 26 202 0.0 0.0 0.00 0.00 0.00 88 1011.3
20260902142447 26 202 0.0 0.0 0.00 0.00 0.00 88 1011.3
20260902141447 26 202 0.0 0.0 0.00 0.00 0.00 88 1011.3
20260902140447 26 202 0.0 0.0 0.00 0.00 0.00 88 1011.3
20260902135447 26 202 0.0 0.0 0.00 0.00 0.00 88 1011.3
20260902134447 26 202 0.0 0.0 0.00 0.00 0.00 88 1011.3
20260902133450 26 202 0.0 0.0 0.00 0.00 0.00 88 1011.3
20260902132447 26 202 0.0 0.0 0.00 0.00 0.00 88 1011.2
20260902131447 26 202 0.0 0.0 0.00 0.00 0.00 88 1010.8
20260902130446 26 202 0.0 0.0 0.00 0.00 0.00 88 1010.8
20260902125450 26 202 0.0 0.0 0.00 0.00 0.00 88 1010.7
20260902124446 26 202 0.0 0.0 0.00 0.00 0.00 88 1010.2
20260902123450 26 202 0.0 0.0 0.00 0.00 0.00 88 1010.2
20260902122447 26 202 0.0 3.2 0.00 0.00 0.00 87 1009.7
20260902121447 26 200 0.0 3.2 0.00 0.00 0.00 86 1009.8
20260902120447 26 200 0.0 3.2 0.00 0.00 0.00 86 1009.8
20260902115446 26 200 0.0 4.8 0.00 0.00 0.00 86 1009.9
20260902114446 26 200 0.0 3.2 0.00 0.00 0.00 86 1009.9
20260902113447 27 200 0.0 3.2 0.00 0.00 0.00 86 1009.9
20260902112450 27 200 0.0 0.0 0.00 0.00 0.00 85 1009.8
20260902111447 27 200 0.0 1.6 0.00 0.00 0.00 85 1009.8
20260902110449 27 200 0.0 1.6 0.00 0.00 0.00 85 1009.8
20260902105447 27 200 0.0 1.6 0.00 0.00 0.00 85 1009.8
20260902104447 27 200 0.0 3.2 0.00 0.00 0.00 84 1009.8
20260902103446 27 200 0.0 4.8 0.00 0.00 0.00 84 1009.8
20260902102446 27 200 0.0 3.2 0.00 0.00 0.00 84 1009.7
20260902101446 27 200 0.0 0.0 0.00 0.00 0.00 83 1009.6
20260902100446 27 200 0.0 3.2 0.00 0.00 0.00 83 1009.6
20260902095446 27 200 1.6 4.8 0.00 0.00 0.00 83 1009.7
20260902094447 27 200 0.0 3.2 0.00 0.00 0.00 82 1009.7
20260902093446 27 200 0.0 1.6 0.00 0.00 0.00 82 1009.7
20260902092446 27 200 0.0 3.2 0.00 0.00 0.00 82 1009.7
20260902091447 27 201 0.0 4.8 0.00 0.00 0.00 82 1009.7
20260902090446 27 201 0.0 4.8 0.00 0.00 0.00 82 1009.7
20260902085449 27 201 0.0 3.2 0.00 0.00 0.00 81 1009.7
20260902084446 27 201 0.0 4.8 0.00 0.00 0.00 81 1009.7
20260902083446 27 200 0.0 4.8 0.00 0.00 0.00 81 1009.7
20260902082446 27 198 0.0 3.2 0.00 0.00 0.00 80 1009.7
20260902081447 27 198 0.0 6.4 0.00 0.00 0.00 79 1009.7
20260902080446 27 202 0.0 4.8 0.00 0.00 0.00 79 1009.7
20260902075447 27 267 1.6 4.8 0.00 0.00 0.00 79 1009.7
20260902074446 27 267 0.0 4.8 0.00 0.00 0.00 79 1009.7
20260902073447 27 268 0.0 4.8 0.00 0.00 0.00 79 1009.7
20260902072446 27 273 1.6 3.2 0.00 0.00 0.00 79 1009.8
20260902071449 27 273 0.0 3.2 0.00 0.00 0.00 79 1009.8
20260902070447 27 294 0.0 8.0 0.00 0.00 0.00 79 1009.8
20260902065447 27 51 0.0 3.2 0.00 0.00 0.00 79 1009.7
20260902064446 27 49 1.6 1.6 0.00 0.00 0.00 78 1009.7
20260902063447 27 48 0.0 3.2 0.00 0.00 0.00 76 1009.7